DRESDEN

Satellite information

Favourite Embed

Satellite Type and Status

PAYLOADIN ORBIT

Key statistics

Satellite DRESDEN at a glance.

Uptime

113

Days in orbit

Revolutions

≈ 14.7

Per day

Orbit

SSO

Sun Synchronous Orbit

Inclination

98.0

Latest

Satellite identification and parameters

Extended collection of information and parameters for DRESDEN.

Object identification

Identified? True

Debris? False

Object name: DRESDEN

International designator: 2025-185A

Object number (NORAD): 65297

Object ID (CCSDS): 65297

Country: REPUBLIC OF RWANDA (RWA)

Current information (Y/N): Y

RCS size: LARGE

Orbital parameters

Period: 97.639 minutes

Inclination: 97.9693 deg

SMA: 7023.864 km

Apoapsis: 654.313 km

Periapsis: 637.145 km

RAAN: 68.1214 deg

Eccentricy: 0.00122211

Argument of periapsis: 313.5175 deg

Mean anomaly: 46.5017 deg

Mean motion: 14.74818594 rev/day

Mean motion (dot): 0.00008575 rev/day2

B* drag term: 0.0012849344 1/REarth

Two-line elements (TLE)

Creation date: Dec. 14, 2025, 3:07 a.m.

Reference frame: TEME

Reference center: EARTH

Epoch: Dec. 13, 2025, 11:52 a.m. UTC

TLE line 0: 0 DRESDEN

TLE line 1: 1 65297U 25185A 25347.49489545 .00008575 00000-0 12849-2 0 9990

TLE line 2: 2 65297 97.9693 68.1214 0012221 313.5175 46.5017 14.74818594 16415

Live tracking on map

Real-time ground track for satellite DRESDEN.

In-orbit conjunctions

There are no conjunctions computed for DRESDEN, at the moment. Check back to stay up to date, as we update our databases every day.

Go to all conjunctions

Associated space launch

'Live, Laugh, Launch' is the second of two dedicated missions on Electron for a confidential customer in 2025. This mission deployed 5 satellites to a 655 km circular Earth orbit identified as “Calistus A to E”, identified as most likely for Low Earth Orbit communication satellite constellation operator E-Space.

DRESDEN was lifted into orbit during the mission ‘Electron | Live, Laugh, Launch (Calistus A-E)’, on board a Electron space rocket.

The launch took place on Aug. 23, 2025, 10:42 p.m. from Rocket Lab Launch Complex 1A.

For more information about the launch, click the button.

Launch to space Electron | Live, Laugh, Launch (Calistus A-E)
Electron | Live, Laugh, Launch (Calistus A-E)

Agency: N/A

Status: Launch Successful

Launch date: Aug. 23, 2025, 10:42 p.m. UTC

Rocket: Electron

Launch pad: Rocket Lab Launch Complex 1A

Location: Rocket Lab Launch Complex 1, Mahia Peninsula, New Zealand

...

Latest news about this satellite

News about space launch
Launch Roundup: SpaceX, Chinese, and Russian missions make up busy week

A Chinese rocket, a pair of Russian missions, a trio of Falcon 9 launches, and… The post Launch Roundup: SpaceX, Chinese, and Russian missions make up busy week appeared first on NASASpaceFlight.com.


Newsletter sign-up

Weekly statistics, charts and insights to help you stay on top of the space industry.